Weather in Sinitsyno

Russia / Republic of Crimea     45°14′16″N   35°15′02″E
temp.,
°C
wind,
m/s
gust,
m/s
humid.,
%
clouds,
%
prec.,
mm/h
press.,
hPa
HPBL,
m
27 february, sat
sat2700:00+7ssw34860 0.0 102352
03:00+6sw33840 0.0 102129
06:00+6sw22830 0.0 102026
09:00+8sw23750 0.0 1020111
12:00+13w58580 0.0 1019684
15:00+13wnw79629 0.0 1018709
18:00+7nne569191 0.1 1017251
21:00+6n579496 0.9 1018420
28 february, sun
sun2800:00+5nnw5790100 2.8 1018585
03:00+5nnw5789100 3.7 1018561
06:00+5nw6877100 0.1 1019735
09:00+4nw788694 0.4 1019686
12:00+4nnw6881100 0.2 1020741
15:00+4nnw687896 0.5 1021780
18:00+5nw587195 0.1 1021889
21:00+4nw577894 0.3 1023535
1 march, mon
mon100:00+2wnw468697 0.0 1024297
03:00+2wnw359187 0.0 1024211
06:00+1wnw459484 0.0 1025217
09:00+2wnw459093 0.1 1026386
12:00+4nnw347084 0.1 1027722
15:00+4n447289 0.1 1027583
18:00+3nne237097 0.0 1027554
21:00+2nne117282 0.0 1029127
2 march, tue
tue200:00+2w117471 0.0 1029124
03:00+1w238235 0.0 1030102
06:00+1wnw34860 0.0 1030137
09:00+2w34790 0.0 1030246
12:00+5wnw45588 0.0 10301086
15:00+7w57546 0.0 10281248
18:00+6w696522 0.0 1026738
21:00+4w7127559 0.0 1026659
3 march, wed
wed300:00+4w8157997 0.0 1025552
03:00+6w8138398 0.0 1024639
06:00+4nw589160 0.0 1024307
09:00+4wnw588146 0.0 1025385
12:00+7nnw896410 0.0 10261215
15:00+7nnw79536 0.0 10261067
18:00+6nnw58590 0.0 1027691
21:00+4nw35680 0.0 1028221